Location: Bagnolo San Vito
(45.0833°N, 10.8833°E)
Time: 23:21:59
(UTC+00:00)

Cosmos 1703 Rocket - Pass Details

Date: 03 March 2021
Orbit: 604 x 634 km, 82.5° (Epoch: 17 April)

Event Time Altitude Azimuth Distance (km) Brightness Sun altitude
Rises 18:48:04 0° 350° (N) 2,911 7.3 -18.6°
Reaches altitude 10° 18:50:18 10° 349° (N) 1,995 6.4 -19.0°
Maximum altitude 18:54:43 79° 264° (W) 632 3.6 -19.8°
Drops below altitude 10° 18:59:04 10° 177° (S) 1,960 6.0 -20.5°
Enters shadow 18:59:28 - 177° (S) 2,124 6.2 -20.6°
